FW8954 Weather Reports


time (UTC)temp
C
wind
direction
speed
KPH
gust
KPH
rain 1hr
cm
rain 24hr
cm
rain mn
cm
humidity
%
barometer
mb
20260508065536 8 0 0.0 0.0 0.00 0.00 0.00 27 1016.9
20260508065032 8 0 0.0 0.0 0.00 0.00 0.00 28 1017.0
20260508064543 9 0 0.0 0.0 0.00 0.00 0.00 27 1017.0
20260508064035 9 0 0.0 0.0 0.00 0.00 0.00 27 1017.0
20260508063534 10 0 0.0 0.0 0.00 0.00 0.00 26 1016.8
20260508063101 9 0 0.0 0.0 0.00 0.00 0.00 26 1016.7
20260508062533 9 82 0.0 0.0 0.00 0.00 0.00 26 1016.7
20260508062033 10 0 0.0 0.0 0.00 0.00 0.00 26 1016.7
20260508061556 10 0 0.0 1.6 0.00 0.00 0.00 25 1016.7
20260508061034 10 0 0.0 1.6 0.00 0.00 0.00 24 1016.8
20260508060534 10 0 0.0 1.6 0.00 0.00 0.00 25 1016.8
20260508060055 10 0 0.0 1.6 0.00 0.00 0.00 26 1016.7
20260508055535 10 0 0.0 0.0 0.00 0.00 0.00 27 1016.7
20260508055039 10 0 0.0 0.0 0.00 0.00 0.00 26 1016.7
20260508054545 10 0 0.0 0.0 0.00 0.00 0.00 25 1016.6
20260508054034 10 0 0.0 0.0 0.00 0.00 0.00 24 1016.6
20260508053534 10 0 0.0 1.6 0.00 0.00 0.00 24 1016.7
20260508053046 11 0 0.0 1.6 0.00 0.00 0.00 24 1016.5
20260508052534 11 280 0.0 1.6 0.00 0.00 0.00 24 1016.6
20260508052034 10 281 0.0 1.6 0.00 0.00 0.00 23 1016.7
20260508051542 10 0 0.0 1.6 0.00 0.00 0.00 24 1016.6
20260508051038 10 0 0.0 1.6 0.00 0.00 0.00 24 1016.7
20260508050535 10 0 0.0 0.0 0.00 0.00 0.00 24 1016.7
20260508050052 10 0 0.0 0.0 0.00 0.00 0.00 24 1016.6
20260508045535 10 0 0.0 0.0 0.00 0.00 0.00 24 1016.7
20260508045033 10 0 0.0 0.0 0.00 0.00 0.00 24 1016.7
20260508044546 10 0 0.0 0.0 0.00 0.00 0.00 24 1016.6
20260508044049 11 0 0.0 0.0 0.00 0.00 0.00 23 1016.4
20260508043535 11 0 0.0 0.0 0.00 0.00 0.00 23 1016.5
20260508043042 11 0 0.0 0.0 0.00 0.00 0.00 22 1016.4
20260508042533 11 0 0.0 0.0 0.00 0.00 0.00 22 1016.5
20260508042030 12 0 0.0 0.0 0.00 0.00 0.00 22 1016.4
20260508041544 12 0 0.0 0.0 0.00 0.00 0.00 21 1016.4
20260508041030 12 0 0.0 0.0 0.00 0.00 0.00 21 1016.4
20260508040531 13 0 0.0 0.0 0.00 0.00 0.00 19 1016.3
20260508040053 13 0 0.0 0.0 0.00 0.00 0.00 18 1016.4
20260508035532 14 0 0.0 0.0 0.00 0.00 0.00 17 1016.3
20260508035036 15 0 0.0 0.0 0.00 0.00 0.00 16 1016.2
20260508034547 16 0 0.0 0.0 0.00 0.00 0.00 15 1016.2
20260508034034 16 0 0.0 1.6 0.00 0.00 0.00 15 1016.2
20260508033530 16 0 0.0 1.6 0.00 0.00 0.00 13 1016.1
20260508033048 17 0 0.0 1.6 0.00 0.00 0.00 13 1016.0
20260508032534 17 0 0.0 1.6 0.00 0.00 0.00 13 1015.8
20260508032035 17 278 0.0 1.6 0.00 0.00 0.00 12 1015.8
20260508031543 17 0 0.0 1.6 0.00 0.00 0.00 12 1015.7
20260508031031 18 0 0.0 1.6 0.00 0.00 0.00 11 1015.6
20260508030533 18 293 0.0 3.2 0.00 0.00 0.00 11 1015.5
20260508030043 18 263 0.0 3.2 0.00 0.00 0.00 11 1015.5
20260508025533 18 0 0.0 3.2 0.00 0.00 0.00 11 1015.4
20260508025030 18 0 0.0 3.2 0.00 0.00 0.00 10 1015.3
20260508024548 18 0 0.0 3.2 0.00 0.00 0.00 10 1015.3
20260508024030 19 0 0.0 3.2 0.00 0.00 0.00 10 1015.2
20260508023533 19 246 0.0 3.2 0.00 0.00 0.00 9 1015.1
20260508023045 19 273 0.0 3.2 0.00 0.00 0.00 9 1015.1
20260508022533 20 0 0.0 3.2 0.00 0.00 0.00 9 1015.1
20260508022034 20 264 0.0 3.2 0.00 0.00 0.00 9 1015.0
20260508021547 20 263 0.0 4.8 0.00 0.00 0.00 9 1014.9
20260508021033 20 261 0.0 8.0 0.00 0.00 0.00 8 1014.8
20260508020534 21 262 1.6 8.0 0.00 0.00 0.00 8 1014.8
20260508020044 21 263 0.0 4.8 0.00 0.00 0.00 8 1014.7
20260508015533 21 262 0.0 4.8 0.00 0.00 0.00 8 1014.7
20260508015031 21 335 1.6 4.8 0.00 0.00 0.00 8 1014.6
20260508014544 21 205 0.0 4.8 0.00 0.00 0.00 13 1014.6
20260508014036 22 129 0.0 4.8 0.00 0.00 0.00 13 1014.6
20260508013535 22 193 1.6 9.7 0.00 0.00 0.00 12 1014.4
20260508013046 22 161 1.6 9.7 0.00 0.00 0.00 12 1014.4
20260508012530 23 148 3.2 9.7 0.00 0.00 0.00 12 1014.2
20260508012034 23 198 1.6 6.4 0.00 0.00 0.00 12 1014.2
20260508011547 24 137 1.6 6.4 0.00 0.00 0.00 12 1014.2
20260508011031 24 242 1.6 8.0 0.00 0.00 0.00 12 1014.2
20260508010534 24 211 0.0 8.0 0.00 0.00 0.00 12 1014.1
20260508010049 24 172 1.6 9.7 0.00 0.00 0.00 12 1014.2
20260508005538 24 8 1.6 9.7 0.00 0.00 0.00 11 1014.0
20260508005035 25 200 4.8 9.7 0.00 0.00 0.00 11 1014.0
20260508004543 25 146 3.2 9.7 0.00 0.00 0.00 11 1014.0
20260508004034 25 181 3.2 9.7 0.00 0.00 0.00 11 1014.1
20260508003533 25 207 3.2 9.7 0.00 0.00 0.00 11 1014.1
20260508003043 25 314 3.2 9.7 0.00 0.00 0.00 11 1014.0
20260508002530 25 219 4.8 9.7 0.00 0.00 0.00 10 1014.1
20260508002030 25 119 3.2 9.7 0.00 0.00 0.00 10 1014.0
20260508001552 25 208 3.2 11.3 0.00 0.00 0.00 10 1014.0
20260508001030 25 224 3.2 12.9 0.00 0.00 0.00 10 1014.0
20260508000532 25 165 4.8 14.5 0.00 0.00 0.00 10 1014.0
20260508000042 25 76 4.8 14.5 0.00 0.00 0.00 10 1014.0
20260507235534 25 124 4.8 12.9 0.00 0.00 0.00 10 1014.0
20260507235037 25 156 3.2 12.9 0.00 0.00 0.00 10 1014.1
20260507234542 25 280 3.2 11.3 0.00 0.00 0.00 10 1014.1
20260507234030 25 179 4.8 11.3 0.00 0.00 0.00 9 1014.2
20260507233531 25 86 1.6 12.9 0.00 0.00 0.00 10 1014.2
20260507233048 25 235 6.4 12.9 0.00 0.00 0.00 10 1014.4
20260507232534 25 169 3.2 12.9 0.00 0.00 0.00 10 1014.4
20260507232033 25 168 3.2 12.9 0.00 0.00 0.00 10 1014.4
20260507231556 25 245 6.4 12.9 0.00 0.00 0.00 10 1014.5
20260507231031 25 66 4.8 12.9 0.00 0.00 0.00 10 1014.5
20260507230531 25 69 3.2 12.9 0.00 0.00 0.00 10 1014.5
20260507230050 25 129 3.2 11.3 0.00 0.00 0.00 9 1014.7
20260507225530 25 206 4.8 11.3 0.00 0.00 0.00 10 1014.8
20260507225034 25 243 4.8 12.9 0.00 0.00 0.00 10 1014.8
20260507224546 25 302 3.2 12.9 0.00 0.00 0.00 10 1014.8
20260507224034 25 197 4.8 12.9 0.00 0.00 0.00 10 1014.9
20260507223622 25 65 4.8 12.9 0.00 0.00 0.00 9 1015.0
20260507223045 25 144 3.2 12.9 0.00 0.00 0.00 10 1015.0
20260507222536 25 210 4.8 11.3 0.00 0.00 0.00 10 1015.1
20260507222030 25 158 4.8 9.7 0.00 0.00 0.00 10 1015.1
20260507221543 25 213 1.6 12.9 0.00 0.00 0.00 10 1015.3
20260507221030 25 255 3.2 12.9 0.00 0.00 0.00 10 1015.3
20260507220536 25 146 6.4 12.9 0.00 0.00 0.00 10 1015.3
20260507220045 25 163 1.6 11.3 0.00 0.00 0.00 12 1015.3
20260507215531 24 124 4.8 11.3 0.00 0.00 0.00 13 1015.6
20260507215034 24 195 3.2 9.7 0.00 0.00 0.00 13 1015.7
20260507214557 25 63 3.2 16.1 0.00 0.00 0.00 12 1016.0
20260507214032 25 256 4.8 16.1 0.00 0.00 0.00 13 1016.0
20260507213538 25 138 3.2 14.5 0.00 0.00 0.00 13 1016.0
20260507213052 24 240 4.8 16.1 0.00 0.00 0.00 14 1016.1
20260507212536 24 157 4.8 16.1 0.00 0.00 0.00 13 1016.2
20260507212037 23 118 6.4 16.1 0.00 0.00 0.00 16 1016.3
20260507211549 23 111 4.8 12.9 0.00 0.00 0.00 16 1016.5
20260507211034 23 58 4.8 12.9 0.00 0.00 0.00 15 1016.7
20260507210534 23 145 6.4 12.9 0.00 0.00 0.00 14 1016.8
20260507210047 24 136 3.2 9.7 0.00 0.00 0.00 15 1016.8
20260507205534 24 82 3.2 12.9 0.00 0.00 0.00 14 1017.1
20260507205034 24 122 3.2 12.9 0.00 0.00 0.00 15 1017.1
20260507204547 23 107 4.8 11.3 0.00 0.00 0.00 16 1017.2
20260507204036 23 30 3.2 8.0 0.00 0.00 0.00 16 1017.3
20260507203531 23 46 3.2 8.0 0.00 0.00 0.00 16 1017.4
20260507203100 23 85 3.2 11.3 0.00 0.00 0.00 15 1017.5
20260507202533 22 250 4.8 12.9 0.00 0.00 0.00 17 1017.5
20260507202033 22 178 4.8 12.9 0.00 0.00 0.00 17 1017.8
20260507201556 22 304 1.6 8.0 0.00 0.00 0.00 16 1017.8
20260507201032 22 258 1.6 8.0 0.00 0.00 0.00 17 1017.9
20260507200532 21 155 1.6 8.0 0.00 0.00 0.00 18 1018.0
20260507195534 23 243 3.2 9.7 0.00 0.00 0.00 16 1018.1
20260507195033 23 74 3.2 9.7 0.00 0.00 0.00 17 1018.1
20260507194543 23 221 3.2 8.0 0.00 0.00 0.00 18 1018.2
20260507194032 22 304 1.6 8.0 0.00 0.00 0.00 18 1018.4
20260507193533 22 162 3.2 8.0 0.00 0.00 0.00 17 1018.4
20260507193047 22 214 3.2 9.7 0.00 0.00 0.00 17 1018.5
20260507192531 22 252 1.6 9.7 0.00 0.00 0.00 17 1018.5
20260507192039 21 121 3.2 9.7 0.00 0.00 0.00 18 1018.7
20260507191542 21 216 4.8 17.7 0.00 0.00 0.00 19 1018.7
20260507191030 21 157 4.8 17.7 0.00 0.00 0.00 20 1018.8
20260507190536 21 300 3.2 9.7 0.00 0.00 0.00 20 1018.9
20260507190049 21 199 1.6 8.0 0.00 0.00 0.00 19 1018.9
20260507185536 20 149 3.2 8.0 0.00 0.00 0.00 21 1019.1
20260507185034 20 232 1.6 6.4 0.00 0.00 0.00 20 1019.3
20260507184553 20 200 1.6 6.4 0.00 0.00 0.00 22 1019.4
20260507184031 20 240 3.2 6.4 0.00 0.00 0.00 22 1019.6
20260507183534 18 263 1.6 4.8 0.00 0.00 0.00 23 1019.5
20260507183048 19 60 1.6 8.0 0.00 0.00 0.00 21 1019.6
20260507182531 19 273 3.2 8.0 0.00 0.00 0.00 23 1019.7
20260507182031 20 97 3.2 6.4 0.00 0.00 0.00 22 1019.8
20260507181543 19 288 0.0 4.8 0.00 0.00 0.00 22 1019.9
20260507181033 18 115 1.6 4.8 0.00 0.00 0.00 23 1019.9
20260507180537 17 248 1.6 8.0 0.00 0.00 0.00 25 1020.1
20260507180046 17 0 3.2 11.3 0.00 0.00 0.00 25 1020.2
20260507175537 17 223 3.2 11.3 0.00 0.00 0.00 24 1020.3
20260507175033 17 282 3.2 11.3 0.00 0.00 0.00 25 1020.4
20260507174549 16 0 3.2 9.7 0.00 0.00 0.00 28 1020.4
20260507174034 16 90 3.2 9.7 0.00 0.00 0.00 25 1020.6
20260507173535 16 334 3.2 8.0 0.00 0.00 0.00 27 1020.7
20260507173045 16 45 3.2 9.7 0.00 0.00 0.00 28 1020.8
20260507172534 16 295 0.0 9.7 0.00 0.00 0.00 30 1020.9
20260507172030 15 46 3.2 9.7 0.00 0.00 0.00 28 1021.0
20260507171544 15 275 1.6 6.4 0.00 0.00 0.00 29 1021.2
20260507171034 15 49 3.2 8.0 0.00 0.00 0.00 30 1021.3
20260507170535 15 64 1.6 9.7 0.00 0.00 0.00 31 1021.3
20260507170048 15 13 4.8 9.7 0.00 0.00 0.00 31 1021.4
20260507165534 14 15 4.8 9.7 0.00 0.00 0.00 31 1021.4
20260507165034 13 84 3.2 14.5 0.00 0.00 0.00 36 1021.3
20260507164556 13 344 4.8 14.5 0.00 0.00 0.00 35 1021.4
20260507164034 13 19 6.4 11.3 0.00 0.00 0.00 36 1021.5
20260507163534 13 293 4.8 11.3 0.00 0.00 0.00 37 1021.5
20260507163049 13 334 3.2 12.9 0.00 0.00 0.00 38 1021.7
20260507162532 13 55 4.8 14.5 0.00 0.00 0.00 39 1021.6
20260507162034 12 63 4.8 14.5 0.00 0.00 0.00 42 1021.7
20260507161551 12 23 4.8 14.5 0.00 0.00 0.00 41 1021.8
20260507161034 12 27 4.8 12.9 0.00 0.00 0.00 42 1021.9
20260507160533 12 20 3.2 12.9 0.00 0.00 0.00 44 1021.9
20260507160047 12 4 6.4 12.9 0.00 0.00 0.00 45 1021.9
20260507155531 12 274 4.8 11.3 0.00 0.00 0.00 46 1021.9
20260507155032 11 306 4.8 12.9 0.00 0.00 0.00 46 1021.9
20260507154551 11 23 4.8 12.9 0.00 0.00 0.00 47 1022.1
20260507154036 11 44 3.2 11.3 0.00 0.00 0.00 50 1022.0
20260507153534 11 339 3.2 12.9 0.00 0.00 0.00 50 1022.1
20260507153046 10 289 4.8 14.5 0.00 0.00 0.00 50 1022.1
20260507152534 10 12 9.7 14.5 0.00 0.00 0.00 50 1022.1
20260507152032 10 25 6.4 16.1 0.00 0.00 0.00 51 1022.2
20260507151547 10 328 8.0 16.1 0.00 0.00 0.00 52 1022.2
20260507151031 10 288 6.4 16.1 0.00 0.00 0.00 53 1022.1
20260507150532 10 18 6.4 16.1 0.00 0.00 0.00 53 1022.2
20260507150045 10 334 6.4 17.7 0.00 0.00 0.00 54 1022.2
20260507145534 9 307 6.4 17.7 0.00 0.00 0.00 54 1022.2
20260507145035 9 308 9.7 17.7 0.00 0.00 0.00 54 1022.3
20260507144543 9 205 8.0 17.7 0.00 0.00 0.00 57 1022.3
20260507144035 8 22 8.0 16.1 0.00 0.00 0.00 58 1022.3
20260507143535 8 1 8.0 16.1 0.00 0.00 0.00 58 1022.4
20260507143043 8 297 6.4 16.1 0.00 0.00 0.00 60 1022.4
20260507142532 8 65 6.4 16.1 0.00 0.00 0.00 60 1022.4
20260507142035 8 312 6.4 16.1 0.00 0.00 0.00 61 1022.4
20260507141542 8 352 6.4 19.3 0.00 0.00 0.00 61 1022.4
20260507141035 7 315 6.4 19.3 0.00 0.00 0.00 62 1022.3
20260507140535 7 30 8.0 17.7 0.00 0.00 0.00 63 1022.3
20260507140046 7 357 8.0 19.3 0.00 0.00 0.00 63 1022.4
20260507135534 7 46 9.7 20.9 0.00 0.00 0.00 64 1022.5
20260507135034 7 359 9.7 20.9 0.00 0.00 0.00 64 1022.6
20260507134543 7 10 8.0 17.7 0.00 0.00 0.00 65 1022.6
20260507134030 7 336 6.4 17.7 0.00 0.00 0.00 66 1022.5
20260507133534 7 342 6.4 17.7 0.00 0.00 0.00 65 1022.4
20260507133100 6 301 4.8 12.9 0.00 0.00 0.00 64 1022.4
20260507132536 6 293 4.8 12.9 0.00 0.00 0.00 65 1022.4
20260507132034 6 6 4.8 12.9 0.00 0.00 0.00 65 1022.3
20260507131550 6 49 4.8 14.5 0.00 0.00 0.00 66 1022.3
20260507131034 6 292 6.4 14.5 0.00 0.00 0.00 68 1022.3
20260507130535 5 314 6.4 14.5 0.00 0.00 0.00 68 1022.2
20260507130106 5 274 6.4 14.5 0.00 0.00 0.00 69 1022.3
20260507125535 5 304 6.4 17.7 0.00 0.00 0.00 70 1022.1
20260507125031 5 354 6.4 17.7 0.00 0.00 0.00 71 1022.2
20260507124545 5 5 6.4 17.7 0.00 0.00 0.00 71 1022.2
20260507124034 5 26 4.8 16.1 0.00 0.00 0.00 71 1022.1
20260507123534 4 40 6.4 16.1 0.00 0.00 0.00 72 1022.1
20260507123045 4 338 4.8 12.9 0.00 0.00 0.00 71 1022.0
20260507122534 4 24 3.2 8.0 0.00 0.00 0.00 71 1022.1
20260507122035 3 310 3.2 8.0 0.00 0.00 0.00 71 1022.0
20260507121549 3 290 1.6 8.0 0.00 0.00 0.00 70 1021.9
20260507121037 3 303 1.6 8.0 0.00 0.00 0.00 70 1021.8
20260507120532 4 46 0.0 4.8 0.00 0.00 0.00 70 1021.9
20260507120059 4 319 1.6 8.0 0.00 0.00 0.00 69 1021.9
20260507115534 4 318 1.6 8.0 0.00 0.00 0.00 69 1021.9
20260507115034 4 0 1.6 6.4 0.00 0.00 0.00 69 1021.9
20260507114627 4 271 1.6 6.4 0.00 0.00 0.00 68 1021.8
20260507114035 4 322 0.0 4.8 0.00 0.00 0.00 67 1021.7
20260507113533 4 0 0.0 4.8 0.00 0.00 0.00 67 1021.9
20260507113046 4 304 1.6 4.8 0.00 0.00 0.00 66 1021.8
20260507112535 4 328 1.6 6.4 0.00 0.00 0.00 65 1021.9
20260507112033 4 311 1.6 6.4 0.00 0.00 0.00 64 1021.9
20260507111547 4 333 1.6 6.4 0.00 0.00 0.00 63 1021.9
20260507111034 4 24 1.6 6.4 0.00 0.00 0.00 63 1022.0
20260507110535 5 78 3.2 6.4 0.00 0.00 0.00 62 1021.9
20260507110042 5 58 1.6 6.4 0.00 0.00 0.00 61 1021.9
20260507105533 5 326 1.6 6.4 0.00 0.00 0.00 60 1021.9
20260507105037 5 44 3.2 6.4 0.00 0.00 0.00 59 1021.9
20260507104543 5 27 1.6 4.8 0.00 0.00 0.00 57 1021.9
20260507104032 5 307 0.0 4.8 0.00 0.00 0.00 57 1021.9
20260507103533 5 34 0.0 8.0 0.00 0.00 0.00 55 1021.8
20260507103047 5 291 1.6 9.7 0.00 0.00 0.00 54 1021.7
20260507102535 5 327 3.2 9.7 0.00 0.00 0.00 54 1021.7
20260507102045 5 49 3.2 8.0 0.00 0.00 0.00 53 1021.7
20260507101546 5 357 3.2 8.0 0.00 0.00 0.00 52 1021.7
20260507101031 5 335 1.6 6.4 0.00 0.00 0.00 51 1021.7
20260507100534 5 330 1.6 6.4 0.00 0.00 0.00 51 1021.6
20260507100048 5 334 0.0 4.8 0.00 0.00 0.00 49 1021.7
20260507095535 5 295 0.0 3.2 0.00 0.00 0.00 47 1021.7
20260507095034 4 0 0.0 1.6 0.00 0.00 0.00 46 1021.6
20260507094542 5 0 0.0 1.6 0.00 0.00 0.00 45 1021.7
20260507094034 5 0 0.0 1.6 0.00 0.00 0.00 43 1021.7
20260507093534 5 0 0.0 0.0 0.00 0.00 0.00 42 1021.6
20260507093048 5 0 0.0 0.0 0.00 0.00 0.00 40 1021.6
20260507092534 6 0 0.0 0.0 0.00 0.00 0.00 39 1021.6
20260507092034 6 0 0.0 3.2 0.00 0.00 0.00 38 1021.7
20260507091547 6 0 0.0 3.2 0.00 0.00 0.00 37 1021.6
20260507091035 6 6 0.0 8.0 0.00 0.00 0.00 36 1021.6
20260507090535 6 33 1.6 8.0 0.00 0.00 0.00 36 1021.5
20260507090048 7 311 1.6 6.4 0.00 0.00 0.00 36 1021.5
20260507085536 7 63 1.6 6.4 0.00 0.00 0.00 36 1021.5
20260507085035 7 0 1.6 11.3 0.00 0.00 0.00 35 1021.5
20260507084554 7 340 3.2 11.3 0.00 0.00 0.00 35 1021.5
20260507084034 7 317 1.6 9.7 0.00 0.00 0.00 35 1021.4
20260507083535 7 311 3.2 8.0 0.00 0.00 0.00 35 1021.4
20260507083044 7 345 1.6 8.0 0.00 0.00 0.00 35 1021.4
20260507082533 7 353 1.6 8.0 0.00 0.00 0.00 36 1021.3
20260507082033 7 330 1.6 6.4 0.00 0.00 0.00 36 1021.3
20260507081543 7 356 1.6 4.8 0.00 0.00 0.00 35 1021.4
20260507081032 7 4 1.6 8.0 0.00 0.00 0.00 34 1021.3
20260507080535 7 11 3.2 9.7 0.00 0.00 0.00 34 1021.2
20260507080105 7 33 3.2 11.3 0.00 0.00 0.00 34 1021.2
20260507075534 7 32 4.8 11.3 0.00 0.00 0.00 35 1021.0
20260507075035 7 338 3.2 8.0 0.00 0.00 0.00 35 1021.0
20260507074545 8 354 1.6 4.8 0.00 0.00 0.00 33 1020.9
20260507074034 8 0 0.0 4.8 0.00 0.00 0.00 32 1020.9
20260507073534 8 276 0.0 3.2 0.00 0.00 0.00 32 1020.8
20260507073051 8 277 0.0 6.4 0.00 0.00 0.00 32 1020.8
20260507072535 8 308 0.0 6.4 0.00 0.00 0.00 32 1020.8
20260507072034 8 257 0.0 1.6 0.00 0.00 0.00 33 1020.7
20260507071546 8 0 0.0 1.6 0.00 0.00 0.00 33 1020.7
20260507071034 8 0 0.0 1.6 0.00 0.00 0.00 33 1020.7
20260507070534 8 0 0.0 1.6 0.00 0.00 0.00 34 1020.6
20260507070042 8 0 0.0 1.6 0.00 0.00 0.00 33 1020.6